Starlink 1741

operational
NORAD ID: 46567 Int'l Des: 2020-070 Owner: SPXS Country: US Constellation: starlink
LEOCIRCULAR

About Starlink 1741

Description loading...

Live Position

Loading 3D Globe...

Upcoming Passes

Altitude History

Altitude vs Time

uPlot chart will show altitude changes over time

Two-Line Element Set

1 46567U 20070AM 26063.00001157 .00154460 00000-0 17400-2 0 9992
2 46567 53.0431 145.6146 0003703 168.4267 345.7217 15.61548038 5993
Epoch: Mar 4, 2026 • Age: 7 hours

Current Status

Altitude 387.8 km
Velocity 7.68 km/s
Sub-Earth Point 50.75°N, 16.33°W
Launch Date Oct 6, 2020
Age 5.4 years
Type internet

Technical Details

Classification Payload
Mass 260.00 kg
Dry Mass 248.00 kg
Total Mass 260.00 kg
Length 0.20 m
Diameter 2.80 m
Span 9.00 m
Shape Box + pan
Manufacturer SPXS
Bus Type Starlink
Phase Status In Orbit
Owner/State SPXS/US

Large Constellations

Loading constellations...